OBJECT A

基本信息
目录编号:
57312
目录名称:
OBJECT A
国际标识:
1998-067VQ
轨道中心:
EARTH
物体状态:
已陨落(2024-01-10)
发射日期:
1998-11-20 UTC
国别:
(TBD)
轨道信息
数据来源: 国际轨道数据
星历时间: 2024-01-08T19:08:18+0800
半长轴: 6531.426km
偏心率: 0.0001119
轨道倾角: 51.611°
近地点辐角: 318.842°
升交点赤经: 8.037°
平近点角: 41.252°
近地点: 152.56km
远地点: 154.022km
周期: 87.553分钟
每日圈数: 16.447155
详细信息
发射场:
TTMTR
轨道高度:
LEO
数据来源:
AOE Integration Group
参考系:
TEME
时间系统:
UTC
历元类型:
SGP4
2D轨道图
3D轨道图
轨道高度分析图
轨道倾角分析图
轨道综合分析图
查看轨道综合分析图